Time,TemperatureF,DewpointF,PressureIn,WindDirection,WindDirectionDegrees,WindSpeedMPH,WindSpeedGustMPH,Humidity,HourlyPrecipIn,Conditions,Clouds,dailyrainin,SoftwareType,DateUTC
2013-04-16 00:08:00,63.8,37.0,29.68,South,180,4.0,-999.0,37,-99.99,,,0.00,weatherlink.com 1.10,2013-04-16 07:08:00,
2013-04-16 00:23:00,63.3,36.0,29.69,South,171,9.0,-999.0,37,-99.99,,,0.00,weatherlink.com 1.10,2013-04-16 07:23:00,
2013-04-16 00:38:00,62.9,36.0,29.70,South,185,5.0,-999.0,37,-99.99,,,0.00,weatherlink.com 1.10,2013-04-16 07:38:00,
2013-04-16 00:53:00,62.6,36.0,29.70,South,184,0.0,-999.0,37,-99.99,,,0.00,weatherlink.com 1.10,2013-04-16 07:53:00,
2013-04-16 01:08:00,62.2,35.0,29.70,South,184,5.0,-999.0,37,-99.99,,,0.00,weatherlink.com 1.10,2013-04-16 08:08:00,
2013-04-16 01:23:00,61.8,35.0,29.71,South,169,1.0,-999.0,37,-99.99,,,0.00,weatherlink.com 1.10,2013-04-16 08:23:00,
2013-04-16 01:38:00,61.4,35.0,29.71,SSE,165,5.0,-999.0,37,-99.99,,,0.00,weatherlink.com 1.10,2013-04-16 08:38:00,
2013-04-16 01:53:00,60.9,34.0,29.71,SSE,165,0.0,-999.0,37,-99.99,,,0.00,weatherlink.com 1.10,2013-04-16 08:53:00,
2013-04-16 02:08:00,60.4,34.0,29.71,SSE,165,0.0,-999.0,38,-99.99,,,0.00,weatherlink.com 1.10,2013-04-16 09:08:00,
2013-04-16 02:23:00,59.3,34.0,29.72,SSE,165,0.0,-999.0,39,-99.99,,,0.00,weatherlink.com 1.10,2013-04-16 09:23:00,
2013-04-16 02:38:00,59.3,32.0,29.71,SSE,166,2.0,-999.0,36,-99.99,,,0.00,weatherlink.com 1.10,2013-04-16 09:38:00,
2013-04-16 02:53:00,59.9,31.0,29.71,SSE,166,0.0,-999.0,34,-99.99,,,0.00,weatherlink.com 1.10,2013-04-16 09:53:00,
2013-04-16 03:08:00,59.7,32.0,29.72,SSE,166,0.0,-999.0,35,-99.99,,,0.00,weatherlink.com 1.10,2013-04-16 10:08:00,
2013-04-16 03:23:00,58.5,33.0,29.72,SSE,166,0.0,-999.0,39,-99.99,,,0.00,weatherlink.com 1.10,2013-04-16 10:23:00,
2013-04-16 03:38:00,57.8,33.0,29.72,SSE,166,0.0,-999.0,40,-99.99,,,0.00,weatherlink.com 1.10,2013-04-16 10:38:00,
2013-04-16 03:53:00,57.7,33.0,29.73,SSE,166,5.0,-999.0,40,-99.99,,,0.00,weatherlink.com 1.10,2013-04-16 10:53:00,
2013-04-16 04:08:00,59.1,31.0,29.72,SSW,196,6.0,-999.0,35,-99.99,,,0.00,weatherlink.com 1.10,2013-04-16 11:08:00,
2013-04-16 04:23:00,59.2,33.0,29.73,SW,219,5.0,-999.0,38,-99.99,,,0.00,weatherlink.com 1.10,2013-04-16 11:23:00,
2013-04-16 04:39:00,58.4,35.0,29.72,South,184,7.0,-999.0,41,-99.99,,,0.00,weatherlink.com 1.10,2013-04-16 11:39:00,
2013-04-16 04:54:00,58.1,33.0,29.72,South,178,6.0,-999.0,39,-99.99,,,0.00,weatherlink.com 1.10,2013-04-16 11:54:00,
2013-04-16 05:09:00,57.4,33.0,29.73,SSW,202,3.0,-999.0,40,-99.99,,,0.00,weatherlink.com 1.10,2013-04-16 12:09:00,
2013-04-16 05:24:00,57.6,33.0,29.73,South,189,10.0,-999.0,39,-99.99,,,0.00,weatherlink.com 1.10,2013-04-16 12:24:00,
2013-04-16 05:39:00,57.9,32.0,29.73,SSW,211,3.0,-999.0,38,-99.99,,,0.00,weatherlink.com 1.10,2013-04-16 12:39:00,
2013-04-16 05:54:00,57.6,31.0,29.74,SSW,200,3.0,-999.0,37,-99.99,,,0.00,weatherlink.com 1.10,2013-04-16 12:54:00,
2013-04-16 06:09:00,57.0,31.0,29.75,SSW,204,3.0,-999.0,37,-99.99,,,0.00,weatherlink.com 1.10,2013-04-16 13:09:00,
2013-04-16 06:24:00,56.9,32.0,29.75,SSW,204,0.0,-999.0,39,-99.99,,,0.00,weatherlink.com 1.10,2013-04-16 13:24:00,
2013-04-16 06:39:00,56.8,33.0,29.77,SSW,205,2.0,-999.0,40,-99.99,,,0.00,weatherlink.com 1.10,2013-04-16 13:39:00,
2013-04-16 06:54:00,57.4,33.0,29.78,SSW,204,1.0,-999.0,40,-99.99,,,0.00,weatherlink.com 1.10,2013-04-16 13:54:00,
2013-04-16 07:09:00,57.8,33.0,29.78,South,187,2.0,-999.0,40,-99.99,,,0.00,weatherlink.com 1.10,2013-04-16 14:09:00,
2013-04-16 07:24:00,58.5,33.0,29.79,South,187,2.0,-999.0,39,-99.99,,,0.00,weatherlink.com 1.10,2013-04-16 14:24:00,
2013-04-16 07:39:00,59.5,34.0,29.79,South,187,0.0,-999.0,38,-99.99,,,0.00,weatherlink.com 1.10,2013-04-16 14:39:00,
2013-04-16 07:54:00,60.5,34.0,29.80,South,187,2.0,-999.0,37,-99.99,,,0.00,weatherlink.com 1.10,2013-04-16 14:54:00,
2013-04-16 08:09:00,60.9,34.0,29.80,South,187,2.0,-999.0,37,-99.99,,,0.00,weatherlink.com 1.10,2013-04-16 15:09:00,
2013-04-16 08:24:00,61.4,33.0,29.80,SSE,165,2.0,-999.0,35,-99.99,,,0.00,weatherlink.com 1.10,2013-04-16 15:24:00,
2013-04-16 08:39:00,62.5,34.0,29.80,SSW,192,2.0,-999.0,35,-99.99,,,0.00,weatherlink.com 1.10,2013-04-16 15:39:00,
2013-04-16 08:54:00,62.8,34.0,29.81,SSE,163,5.0,-999.0,34,-99.99,,,0.00,weatherlink.com 1.10,2013-04-16 15:54:00,
2013-04-16 09:09:00,63.8,36.0,29.81,SSW,207,0.0,-999.0,35,-99.99,,,0.00,weatherlink.com 1.10,2013-04-16 16:09:00,
2013-04-16 09:24:00,64.1,36.0,29.81,SSW,207,1.0,-999.0,36,-99.99,,,0.00,weatherlink.com 1.10,2013-04-16 16:24:00,
2013-04-16 09:39:00,64.2,36.0,29.81,SW,217,0.0,-999.0,35,-99.99,,,0.00,weatherlink.com 1.10,2013-04-16 16:39:00,
2013-04-16 09:55:00,65.3,36.0,29.81,SSW,196,0.0,-999.0,34,-99.99,,,0.00,weatherlink.com 1.10,2013-04-16 16:55:00,
2013-04-16 10:09:00,65.2,36.0,29.81,WNW,300,0.0,-999.0,34,-99.99,,,0.00,weatherlink.com 1.10,2013-04-16 17:09:00,
2013-04-16 10:24:00,65.6,36.0,29.82,West,275,0.0,-999.0,33,-99.99,,,0.00,weatherlink.com 1.10,2013-04-16 17:24:00,
2013-04-16 10:40:00,66.7,36.0,29.82,SSW,209,3.0,-999.0,32,-99.99,,,0.00,weatherlink.com 1.10,2013-04-16 17:40:00,
2013-04-16 10:54:00,67.1,36.0,29.82,SSW,198,1.0,-999.0,32,-99.99,,,0.00,weatherlink.com 1.10,2013-04-16 17:54:00,
2013-04-16 11:09:00,67.4,36.0,29.82,South,190,3.0,-999.0,31,-99.99,,,0.00,weatherlink.com 1.10,2013-04-16 18:09:00,
2013-04-16 11:25:00,68.3,36.0,29.82,SSW,198,0.0,-999.0,30,-99.99,,,0.00,weatherlink.com 1.10,2013-04-16 18:25:00,
2013-04-16 11:39:00,67.8,36.0,29.81,SE,132,6.0,-999.0,31,-99.99,,,0.00,weatherlink.com 1.10,2013-04-16 18:39:00,
2013-04-16 11:55:00,67.7,36.0,29.81,WNW,292,1.0,-999.0,31,-99.99,,,0.00,weatherlink.com 1.10,2013-04-16 18:55:00,
2013-04-16 12:09:00,68.9,35.0,29.80,NW,313,0.0,-999.0,29,-99.99,,,0.00,weatherlink.com 1.10,2013-04-16 19:09:00,
2013-04-16 12:24:00,70.5,36.0,29.80,SE,135,4.0,-999.0,28,-99.99,,,0.00,weatherlink.com 1.10,2013-04-16 19:24:00,
2013-04-16 12:40:00,71.0,35.0,29.80,WSW,248,2.0,-999.0,27,-99.99,,,0.00,weatherlink.com 1.10,2013-04-16 19:40:00,
2013-04-16 12:54:00,70.8,33.0,29.80,West,262,4.0,-999.0,25,-99.99,,,0.00,weatherlink.com 1.10,2013-04-16 19:54:00,
2013-04-16 13:10:00,70.6,33.0,29.79,WSW,248,5.0,-999.0,25,-99.99,,,0.00,weatherlink.com 1.10,2013-04-16 20:10:00,
2013-04-16 13:25:00,72.1,30.0,29.79,WSW,246,6.0,-999.0,21,-99.99,,,0.00,weatherlink.com 1.10,2013-04-16 20:25:00,
2013-04-16 13:39:00,72.4,32.0,29.79,West,265,4.0,-999.0,23,-99.99,,,0.00,weatherlink.com 1.10,2013-04-16 20:39:00,
2013-04-16 13:55:00,71.9,34.0,29.79,WSW,252,8.0,-999.0,25,-99.99,,,0.00,weatherlink.com 1.10,2013-04-16 20:55:00,
2013-04-16 14:10:00,71.7,33.0,29.78,West,260,7.0,-999.0,24,-99.99,,,0.00,weatherlink.com 1.10,2013-04-16 21:10:00,
2013-04-16 14:25:00,72.2,34.0,29.78,WSW,250,4.0,-999.0,25,-99.99,,,0.00,weatherlink.com 1.10,2013-04-16 21:25:00,
2013-04-16 14:39:00,72.5,34.0,29.78,West,264,3.0,-999.0,24,-99.99,,,0.00,weatherlink.com 1.10,2013-04-16 21:39:00,
2013-04-16 14:54:00,72.5,35.0,29.77,SW,235,5.0,-999.0,25,-99.99,,,0.00,weatherlink.com 1.10,2013-04-16 21:54:00,
2013-04-16 15:10:00,72.7,34.0,29.77,WNW,284,7.0,-999.0,24,-99.99,,,0.00,weatherlink.com 1.10,2013-04-16 22:10:00,
2013-04-16 15:25:00,73.6,34.0,29.77,WNW,283,2.0,-999.0,23,-99.99,,,0.00,weatherlink.com 1.10,2013-04-16 22:25:00,
2013-04-16 15:40:00,73.7,32.0,29.76,WSW,257,8.0,-999.0,22,-99.99,,,0.00,weatherlink.com 1.10,2013-04-16 22:40:00,
2013-04-16 15:54:00,73.1,31.0,29.76,WNW,285,4.0,-999.0,21,-99.99,,,0.00,weatherlink.com 1.10,2013-04-16 22:54:00,
2013-04-16 16:09:00,73.7,30.0,29.76,West,260,4.0,-999.0,20,-99.99,,,0.00,weatherlink.com 1.10,2013-04-16 23:09:00,
2013-04-16 16:25:00,73.1,30.0,29.75,WNW,283,5.0,-999.0,20,-99.99,,,0.00,weatherlink.com 1.10,2013-04-16 23:25:00,
2013-04-16 16:40:00,72.9,28.0,29.75,West,267,1.0,-999.0,19,-99.99,,,0.00,weatherlink.com 1.10,2013-04-16 23:40:00,
2013-04-16 16:55:00,72.9,31.0,29.75,West,276,3.0,-999.0,21,-99.99,,,0.00,weatherlink.com 1.10,2013-04-16 23:55:00,
2013-04-16 17:10:00,72.9,28.0,29.75,West,263,3.0,-999.0,19,-99.99,,,0.00,weatherlink.com 1.10,2013-04-17 00:10:00,
2013-04-16 17:25:00,73.2,28.0,29.75,SW,234,1.0,-999.0,19,-99.99,,,0.00,weatherlink.com 1.10,2013-04-17 00:25:00,
2013-04-16 17:40:00,72.7,29.0,29.75,SSW,194,2.0,-999.0,20,-99.99,,,0.00,weatherlink.com 1.10,2013-04-17 00:40:00,
2013-04-16 17:55:00,73.0,30.0,29.75,WSW,250,0.0,-999.0,20,-99.99,,,0.00,weatherlink.com 1.10,2013-04-17 00:55:00,
2013-04-16 18:10:00,72.3,29.0,29.75,WNW,286,1.0,-999.0,20,-99.99,,,0.00,weatherlink.com 1.10,2013-04-17 01:10:00,
2013-04-16 18:25:00,71.4,31.0,29.75,WNW,287,1.0,-999.0,22,-99.99,,,0.00,weatherlink.com 1.10,2013-04-17 01:25:00,
2013-04-16 18:39:00,70.7,29.0,29.75,NNW,334,0.0,-999.0,21,-99.99,,,0.00,weatherlink.com 1.10,2013-04-17 01:39:00,
2013-04-16 18:55:00,69.8,28.0,29.75,WNW,288,1.0,-999.0,21,-99.99,,,0.00,weatherlink.com 1.10,2013-04-17 01:55:00,
2013-04-16 19:10:00,68.8,23.0,29.75,North,350,5.0,-999.0,18,-99.99,,,0.00,weatherlink.com 1.10,2013-04-17 02:10:00,
2013-04-16 19:25:00,68.1,22.0,29.75,NNW,340,5.0,-999.0,17,-99.99,,,0.00,weatherlink.com 1.10,2013-04-17 02:25:00,
2013-04-16 19:40:00,67.6,20.0,29.76,NNW,339,0.0,-999.0,16,-99.99,,,0.00,weatherlink.com 1.10,2013-04-17 02:40:00,
2013-04-16 19:55:00,67.1,21.0,29.76,NW,315,0.0,-999.0,17,-99.99,,,0.00,weatherlink.com 1.10,2013-04-17 02:55:00,
2013-04-16 20:10:00,66.6,20.0,29.76,NW,315,2.0,-999.0,17,-99.99,,,0.00,weatherlink.com 1.10,2013-04-17 03:10:00,
2013-04-16 20:25:00,66.0,20.0,29.77,NW,315,0.0,-999.0,17,-99.99,,,0.00,weatherlink.com 1.10,2013-04-17 03:25:00,
2013-04-16 20:40:00,65.2,20.0,29.78,NW,315,0.0,-999.0,18,-99.99,,,0.00,weatherlink.com 1.10,2013-04-17 03:40:00,
2013-04-16 20:55:00,64.9,20.0,29.78,NW,315,1.0,-999.0,18,-99.99,,,0.00,weatherlink.com 1.10,2013-04-17 03:55:00,
2013-04-16 21:10:00,64.6,21.0,29.79,NW,315,0.0,-999.0,19,-99.99,,,0.00,weatherlink.com 1.10,2013-04-17 04:10:00,
2013-04-16 21:25:00,63.9,21.0,29.79,NW,315,0.0,-999.0,19,-99.99,,,0.00,weatherlink.com 1.10,2013-04-17 04:25:00,
2013-04-16 21:40:00,63.5,20.0,29.80,NW,315,0.0,-999.0,19,-99.99,,,0.00,weatherlink.com 1.10,2013-04-17 04:40:00,
2013-04-16 21:55:00,63.3,18.0,29.80,NW,315,0.0,-999.0,17,-99.99,,,0.00,weatherlink.com 1.10,2013-04-17 04:55:00,
2013-04-16 22:10:00,63.4,16.0,29.80,NW,315,0.0,-999.0,16,-99.99,,,0.00,weatherlink.com 1.10,2013-04-17 05:10:00,
2013-04-16 22:25:00,64.8,17.0,29.81,NNW,332,10.0,-999.0,16,-99.99,,,0.00,weatherlink.com 1.10,2013-04-17 05:25:00,
2013-04-16 22:40:00,64.6,20.0,29.81,WNW,299,10.0,-999.0,18,-99.99,,,0.00,weatherlink.com 1.10,2013-04-17 05:40:00,
2013-04-16 22:55:00,63.9,19.0,29.82,WNW,286,16.0,-999.0,18,-99.99,,,0.00,weatherlink.com 1.10,2013-04-17 05:55:00,
2013-04-16 23:10:00,63.7,21.0,29.82,WNW,292,7.0,-999.0,19,-99.99,,,0.00,weatherlink.com 1.10,2013-04-17 06:10:00,
2013-04-16 23:25:00,63.3,20.0,29.83,WNW,292,10.0,-999.0,19,-99.99,,,0.00,weatherlink.com 1.10,2013-04-17 06:25:00,
2013-04-16 23:40:00,62.7,20.0,29.84,NW,318,10.0,-999.0,19,-99.99,,,0.00,weatherlink.com 1.10,2013-04-17 06:40:00,
2013-04-16 23:55:00,62.1,19.0,29.84,WNW,297,9.0,-999.0,19,-99.99,,,0.00,weatherlink.com 1.10,2013-04-17 06:55:00,